Location: Adaghas
(31.2259°N, 9.0496°W)
Time: 03:49:06
(UTC+00:00)

Ariane Rocket - Pass Details

Date: 18 September 2020
Orbit: 761 x 769 km, 98.7° (Epoch: 23 October)

Event Time Altitude Azimuth Distance (km) Brightness Sun altitude
Exits shadow 19:49:59 26° 98° (E) 1,453 3.8 -16.2°
Maximum altitude 19:51:19 30° 70° (ENE) 1,338 3.8 -16.5°
Drops below altitude 10° 19:55:41 10° 11° (N) 2,303 5.5 -17.4°
Sets 19:58:13 0° 1° (N) 3,234 6.4 -17.9°
